Flag for Romania Weather past 2 weeks in Oradea, Romania

Now
50 °F

Cool.


Feels Like: 47 °F
Forecast: 50 / 78 °F
Wind: 7 mph from Southeast

Location: Oradea Airport

Current Time: Aug 29, 2014 at 6:42:02 AM

Latest Report: Aug 29, 2014 at 5:30 AM


Visibility: N/A

Pressure: 30.15 "Hg

Humidity: 94%

Dew point: 48 °F

Location of OradeaLocation

Historic Weather in Oradea — Graph

°F

Oradea temperature yesterday

Maximum temperature yesterday: 72 °F (at 3:30 PM)
Minimum temperature yesterday: 46 °F (at 6:30 AM)
Average temperature yesterday: 61 °F

Past Weeks' High & Low Weather Summary

 TemperatureHumidityPressure
High88 °F (Aug 14, 2:00 PM)100% (Aug 15, 3:00 AM)30.15 "Hg (Aug 15, 3:00 AM)
Low46 °F (Aug 28, 6:30 AM)31% (Aug 22, 4:00 PM)29.77 "Hg (Aug 14, 5:00 AM)
Average67 °F72%29.96 "Hg
* Reported Aug 14 5:00 AM — Aug 29 5:30 AM, Oradea, Weather by CustomWeather, © 2014

Note: Actual official high and low records may vary slightly from our data, if they occured in-between our weather recording intervals... More about our weather records

Advertising

Oradea weather history for previous 24 hours

 ConditionsComfort  
Time TempWeatherWind HumidityBarometerVisibility
5:30 AM
Aug 29
50 °FCool.7 mph94%30.15 "HgN/A
5:00 AM50 °FCool.7 mph94%30.15 "HgN/A
4:00 AM50 °FCool.7 mph94%30.15 "HgN/A
3:00 AM54 °FCool.9 mph88%30.15 "HgN/A
2:00 AM54 °FCool.7 mph88%30.15 "HgN/A
1:00 AM54 °FCool.7 mph94%30.15 "HgN/A
12:00 AM55 °FCool.7 mph88%30.12 "HgN/A
11:00 PM
Aug 28
55 °FCool.5 mph82%30.12 "HgN/A
10:30 PM57 °FCool.7 mph77%30.12 "HgN/A
10:00 PM57 °FCool.7 mph82%30.12 "HgN/A
9:30 PM59 °FCool.7 mph77%30.12 "HgN/A
9:00 PM59 °FSunny.7 mph77%30.12 "Hg10 mi
8:30 PM63 °FSunny.5 mph68%30.09 "Hg10 mi
8:00 PM66 °FSunny.5 mph60%30.09 "Hg10 mi
7:30 PM68 °FSunny.2 mph56%30.09 "Hg10 mi
7:00 PM72 °FSunny.2 mph44%30.09 "Hg10 mi
6:30 PM70 °FPassing clouds.5 mph46%30.09 "HgN/A
6:00 PM72 °FPassing clouds.5 mph44%30.09 "HgN/A
5:30 PM70 °FPassing clouds.5 mph46%30.09 "HgN/A
5:00 PM72 °FMild.7 mph44%30.09 "HgN/A
4:30 PM72 °FPassing clouds.5 mph41%30.09 "HgN/A
4:00 PM72 °FSunny.9 mph44%30.12 "Hg10 mi
3:30 PM72 °FSunny.5 mph44%30.12 "Hg10 mi
2:00 PM68 °FPassing clouds.7 mph53%30.12 "HgN/A
1:30 PM66 °FSunny.5 mph49%30.12 "Hg10 mi
1:00 PM68 °FPassing clouds.7 mph49%30.12 "HgN/A
12:30 PM66 °FSunny.5 mph56%30.12 "Hg10 mi
12:00 PM64 °FSunny.5 mph60%30.12 "Hg10 mi
11:30 AM64 °FMild.5 mph64%30.12 "HgN/A
11:00 AM63 °FPassing clouds.5 mph64%30.12 "HgN/A
10:30 AM63 °FMild.2 mph68%30.12 "HgN/A
10:00 AM61 °FSunny.2 mph72%30.12 "Hg10 mi
9:30 AM59 °FSunny.2 mph77%30.09 "Hg10 mi
9:00 AM57 °FSunny.No wind77%30.09 "Hg10 mi
8:30 AM55 °FCool.2 mph88%30.09 "HgN/A
8:00 AM52 °FCool.2 mph100%30.09 "HgN/A
7:30 AM48 °FClear.5 mph100%30.09 "Hg10 mi
7:00 AM46 °FClear.2 mph100%30.07 "Hg10 mi
6:30 AM46 °FClear.5 mph100%30.07 "Hg10 mi
6:00 AM48 °FClear.2 mph100%30.04 "Hg10 mi
Weather by CustomWeather, © 2014

See weather overviewHow to use our weather pages